sat.trackr.live / text

‹ back to catalog

YAOGAN-30 07A

NORAD 45460 · 2020-021A

PAYLOAD ACTIVE UNKNOWN

§ Identity

Operator
Country
PRC
Launch date
2020-03-24
Launch site
XICLF
Launch vehicle
Mass (kg)
RCS (m²)

External: N2YO · Heavens-Above · Gunter

§ Orbital elements

Epoch: 2026-09-09T17:38:13.636320Z

Period
95.80 min
Inclination
34.9950°
Eccentricity
0.0003470
Mean motion
15.03053676 rev/d
Perigee alt
555.1 km
Apogee alt
559.9 km
Semi-major
6,935.6 km
B*
1.5200e-4
RAAN
55.4431°
Arg perigee
37.0432°
Mean anomaly
323.0515°
Rev number
35,328

§ Raw data

YAOGAN-30 07A1 45460U 20021A   26252.73488005  .00002061  00000+0  15200-3 0  99952 45460  34.9950  55.4431 0003470  37.0432 323.0515 15.03053676353282

JSON: /api/v1/satellites/45460 · /tle

For live sub-satellite position, see the globe view (requires WebGL).

§ Visibility from observer

Set your observer location to see the next 7 days of passes ≥ 10°. The values pass through the URL so the page stays shareable.

No JS? Fill the form by hand. The geolocation button needs JavaScript.